Wetterdaten: Samstag, 09.04.2016
Datum Zeit Auen-Temp. Temp gefhlt Luftfeuchte Luftdruck Regen Wind Richtung Richtung Sonnenschein Taupunkt Windben
09.04.2016 00:00 2,4 C 2,2 C 89 % 1008,8 hPa 0,0 mm 0,0 km/h (0 Bft) S 180 0 min 0,8 C 0,0 km/h (0 Bft)
09.04.2016 00:05 2,3 C 2,2 C 86 % 1008,8 hPa 0,0 mm 0,0 km/h (0 Bft) O-NO 67 0 min 0,2 C 0,0 km/h (0 Bft)
09.04.2016 00:10 2,3 C 2,1 C 86 % 1008,6 hPa 0,0 mm 0,0 km/h (0 Bft) O-NO 67 0 min 0,2 C 0,0 km/h (0 Bft)
09.04.2016 00:15 2,3 C 2,1 C 89 % 1008,6 hPa 0,0 mm 0,0 km/h (0 Bft) N-NO 22 0 min 0,7 C 0,0 km/h (0 Bft)
09.04.2016 00:20 2,3 C 2,1 C 89 % 1008,6 hPa 0,0 mm 0,0 km/h (0 Bft) W 270 0 min 0,7 C 0,0 km/h (0 Bft)
09.04.2016 00:25 2,3 C 2,1 C 89 % 1008,6 hPa 0,0 mm 0,0 km/h (0 Bft) SW 225 0 min 0,7 C 0,0 km/h (0 Bft)
09.04.2016 00:30 2,3 C 2,1 C 89 % 1008,5 hPa 0,0 mm 0,0 km/h (0 Bft) N-NO 22 0 min 0,7 C 0,0 km/h (0 Bft)
09.04.2016 00:35 2,3 C 2,1 C 86 % 1008,5 hPa 0,0 mm 0,0 km/h (0 Bft) N-NW 337 0 min 0,2 C 0,0 km/h (0 Bft)
09.04.2016 00:40 2,3 C 2,1 C 89 % 1008,5 hPa 0,0 mm 0,0 km/h (0 Bft) NW 315 0 min 0,7 C 0,0 km/h (0 Bft)
09.04.2016 00:45 2,2 C 2,0 C 86 % 1008,5 hPa 0,0 mm 0,0 km/h (0 Bft) O-SO 112 0 min 0,1 C 0,0 km/h (0 Bft)
09.04.2016 00:50 2,2 C 2,0 C 86 % 1008,2 hPa 0,0 mm 0,0 km/h (0 Bft) S 180 0 min 0,1 C 0,0 km/h (0 Bft)
09.04.2016 00:55 2,2 C 2,0 C 89 % 1008,2 hPa 0,0 mm 0,0 km/h (0 Bft) O-NO 67 0 min 0,6 C 0,0 km/h (0 Bft)
09.04.2016 00:57 2,2 C 2,0 C 89 % 1008,2 hPa 0,0 mm 0,0 km/h (0 Bft) O-NO 67 0 min 0,6 C 0,0 km/h (0 Bft)
09.04.2016 01:00 2,2 C 1,9 C 89 % 1008,2 hPa 0,0 mm 0,0 km/h (0 Bft) SO 135 0 min 0,6 C 0,0 km/h (0 Bft)
09.04.2016 01:05 2,2 C 1,9 C 89 % 1008,2 hPa 0,0 mm 0,0 km/h (0 Bft) O-SO 112 0 min 0,6 C 0,0 km/h (0 Bft)
09.04.2016 01:10 2,2 C 1,9 C 89 % 1008,2 hPa 0,0 mm 0,0 km/h (0 Bft) O-NO 67 0 min 0,6 C 0,0 km/h (0 Bft)
09.04.2016 01:15 2,2 C 2,0 C 89 % 1008,2 hPa 0,0 mm 0,0 km/h (0 Bft) O-SO 112 0 min 0,6 C 0,0 km/h (0 Bft)
09.04.2016 01:20 2,2 C 2,0 C 89 % 1008,2 hPa 0,0 mm 0,0 km/h (0 Bft) O-SO 112 0 min 0,6 C 0,0 km/h (0 Bft)
09.04.2016 01:25 2,2 C 2,0 C 89 % 1008,2 hPa 0,0 mm 0,0 km/h (0 Bft) O-SO 112 0 min 0,6 C 0,0 km/h (0 Bft)
09.04.2016 01:30 2,2 C 2,0 C 89 % 1008,1 hPa 0,0 mm 0,0 km/h (0 Bft) O-NO 67 0 min 0,6 C 0,0 km/h (0 Bft)
09.04.2016 01:35 2,2 C 2,0 C 89 % 1008,1 hPa 0,0 mm 0,0 km/h (0 Bft) O-SO 112 0 min 0,6 C 0,0 km/h (0 Bft)
09.04.2016 01:40 2,2 C 2,0 C 89 % 1008,1 hPa 0,0 mm 0,0 km/h (0 Bft) SO 135 0 min 0,6 C 0,0 km/h (0 Bft)
09.04.2016 01:45 2,2 C 2,0 C 89 % 1008,1 hPa 0,0 mm 0,0 km/h (0 Bft) SO 135 0 min 0,6 C 0,0 km/h (0 Bft)
09.04.2016 01:50 2,2 C 2,0 C 89 % 1007,9 hPa 0,0 mm 0,0 km/h (0 Bft) N-NO 22 0 min 0,6 C 0,0 km/h (0 Bft)
09.04.2016 01:55 2,2 C 2,0 C 89 % 1007,9 hPa 0,0 mm 0,0 km/h (0 Bft) O-SO 112 0 min 0,6 C 0,0 km/h (0 Bft)
09.04.2016 02:00 2,2 C 2,0 C 87 % 1007,9 hPa 0,0 mm 0,0 km/h (0 Bft) O-SO 112 0 min 0,3 C 0,0 km/h (0 Bft)
09.04.2016 02:05 2,2 C 2,0 C 87 % 1007,9 hPa 0,0 mm 0,0 km/h (0 Bft) N-NW 337 0 min 0,3 C 0,0 km/h (0 Bft)
09.04.2016 02:10 2,2 C 2,0 C 87 % 1007,9 hPa 0,0 mm 0,0 km/h (0 Bft) O-NO 67 0 min 0,3 C 0,0 km/h (0 Bft)
09.04.2016 02:15 2,2 C 2,1 C 87 % 1007,9 hPa 0,0 mm 0,0 km/h (0 Bft) N 360 0 min 0,3 C 0,0 km/h (0 Bft)
09.04.2016 02:20 2,2 C 2,1 C 87 % 1007,9 hPa 0,0 mm 0,0 km/h (0 Bft) S 180 0 min 0,3 C 0,0 km/h (0 Bft)
09.04.2016 02:25 2,2 C 2,1 C 87 % 1007,9 hPa 0,0 mm 0,0 km/h (0 Bft) W-SW 247 0 min 0,3 C 0,0 km/h (0 Bft)
09.04.2016 02:30 2,3 C 2,1 C 90 % 1007,7 hPa 0,0 mm 0,0 km/h (0 Bft) O-NO 67 0 min 0,8 C 0,0 km/h (0 Bft)
09.04.2016 02:35 2,3 C 2,1 C 90 % 1007,7 hPa 0,0 mm 0,0 km/h (0 Bft) S 180 0 min 0,8 C 3,3 km/h (1 Bft)
09.04.2016 02:40 2,3 C 2,1 C 90 % 1007,7 hPa 0,0 mm 0,0 km/h (0 Bft) NW 315 0 min 0,8 C 0,0 km/h (0 Bft)
09.04.2016 02:45 2,3 C 2,2 C 87 % 1007,7 hPa 0,0 mm 0,6 km/h (0 Bft) S-SO 157 0 min 0,4 C 9,5 km/h (2 Bft)
09.04.2016 02:50 2,3 C 2,2 C 87 % 1007,4 hPa 0,0 mm 1,5 km/h (1 Bft) SO 135 0 min 0,4 C 0,0 km/h (0 Bft)
09.04.2016 02:55 2,4 C 2,3 C 87 % 1007,4 hPa 0,0 mm 1,8 km/h (1 Bft) W-SW 247 0 min 0,5 C 0,0 km/h (0 Bft)
09.04.2016 03:00 2,4 C 2,3 C 87 % 1007,4 hPa 0,0 mm 0,3 km/h (0 Bft) O-NO 67 0 min 0,5 C 0,0 km/h (0 Bft)
09.04.2016 03:05 2,4 C 2,3 C 87 % 1007,4 hPa 0,0 mm 0,0 km/h (0 Bft) O-SO 112 0 min 0,5 C 0,0 km/h (0 Bft)
09.04.2016 03:10 2,4 C 2,2 C 91 % 1007,2 hPa 0,0 mm 0,0 km/h (0 Bft) O-NO 67 0 min 1,1 C 0,0 km/h (0 Bft)
09.04.2016 03:15 2,4 C 2,2 C 91 % 1007,2 hPa 0,0 mm 0,0 km/h (0 Bft) NO 45 0 min 1,1 C 0,0 km/h (0 Bft)
09.04.2016 03:20 2,4 C 2,2 C 91 % 1007,2 hPa 0,0 mm 0,0 km/h (0 Bft) N-NW 337 0 min 1,1 C 0,0 km/h (0 Bft)
09.04.2016 03:25 2,4 C 2,2 C 91 % 1007,2 hPa 0,7 mm 0,0 km/h (0 Bft) W-NW 292 0 min 1,1 C 0,0 km/h (0 Bft)
09.04.2016 03:30 2,4 C 2,2 C 91 % 1007,1 hPa 0,0 mm 0,0 km/h (0 Bft) N-NO 22 0 min 1,1 C 0,0 km/h (0 Bft)
09.04.2016 03:35 2,4 C 2,2 C 91 % 1007,1 hPa 0,0 mm 0,0 km/h (0 Bft) O-SO 112 0 min 1,1 C 0,0 km/h (0 Bft)
09.04.2016 03:40 2,4 C 2,2 C 91 % 1007,1 hPa 0,0 mm 0,0 km/h (0 Bft) O-NO 67 0 min 1,1 C 0,0 km/h (0 Bft)
09.04.2016 03:45 2,4 C 2,2 C 91 % 1007,1 hPa 0,0 mm 0,0 km/h (0 Bft) O-SO 112 0 min 1,1 C 0,0 km/h (0 Bft)
09.04.2016 03:50 2,4 C 2,2 C 91 % 1007,1 hPa 0,0 mm 0,6 km/h (0 Bft) N-NO 22 0 min 1,1 C 0,0 km/h (0 Bft)
09.04.2016 03:55 2,4 C 2,3 C 87 % 1007,1 hPa 0,0 mm 0,6 km/h (0 Bft) NO 45 0 min 0,5 C 0,0 km/h (0 Bft)
09.04.2016 03:58 2,4 C 2,3 C 87 % 1007,1 hPa 0,0 mm 0,3 km/h (0 Bft) NO 45 0 min 0,5 C 0,0 km/h (0 Bft)
09.04.2016 04:00 2,4 C 2,3 C 87 % 1007,1 hPa 0,0 mm 0,3 km/h (0 Bft) NO 45 0 min 0,5 C 0,0 km/h (0 Bft)
09.04.2016 04:05 2,4 C 2,3 C 87 % 1007,1 hPa 0,0 mm 0,0 km/h (0 Bft) NW 315 0 min 0,5 C 0,0 km/h (0 Bft)
09.04.2016 04:10 2,4 C 2,3 C 87 % 1006,8 hPa 0,0 mm 0,0 km/h (0 Bft) N-NO 22 0 min 0,5 C 0,0 km/h (0 Bft)
09.04.2016 04:15 2,4 C 2,3 C 87 % 1006,8 hPa 0,0 mm 0,0 km/h (0 Bft) N 360 0 min 0,5 C 0,0 km/h (0 Bft)
09.04.2016 04:20 2,4 C 2,3 C 87 % 1006,8 hPa 0,0 mm 0,0 km/h (0 Bft) O-SO 112 0 min 0,5 C 0,0 km/h (0 Bft)
09.04.2016 04:25 2,4 C 2,2 C 91 % 1006,8 hPa 0,0 mm 0,0 km/h (0 Bft) O-SO 112 0 min 1,1 C 0,0 km/h (0 Bft)
09.04.2016 04:30 2,4 C 2,2 C 91 % 1006,8 hPa 0,0 mm 0,3 km/h (0 Bft) N-NO 22 0 min 1,1 C 3,0 km/h (1 Bft)
09.04.2016 04:35 2,4 C 2,2 C 91 % 1006,8 hPa 0,0 mm 0,3 km/h (0 Bft) N 360 0 min 1,1 C 0,0 km/h (0 Bft)
09.04.2016 04:40 2,4 C 2,3 C 87 % 1006,8 hPa 0,7 mm 0,3 km/h (0 Bft) SW 225 0 min 0,5 C 0,0 km/h (0 Bft)
09.04.2016 04:45 2,4 C 2,2 C 91 % 1006,8 hPa 0,0 mm 0,3 km/h (0 Bft) O-NO 67 0 min 1,1 C 10,1 km/h (2 Bft)
09.04.2016 04:50 2,4 C 2,2 C 91 % 1006,7 hPa 0,0 mm 2,1 km/h (1 Bft) O-NO 67 0 min 1,1 C 3,9 km/h (1 Bft)
09.04.2016 04:55 2,4 C 2,2 C 91 % 1006,7 hPa 0,0 mm 3,3 km/h (1 Bft) N-NO 22 0 min 1,1 C 14,3 km/h (3 Bft)
09.04.2016 05:00 2,4 C 2,2 C 91 % 1006,7 hPa 0,0 mm 1,8 km/h (1 Bft) N-NO 22 0 min 1,1 C 6,3 km/h (2 Bft)
09.04.2016 05:05 2,4 C 2,2 C 91 % 1006,7 hPa 0,0 mm 1,8 km/h (1 Bft) NO 45 0 min 1,1 C 3,0 km/h (1 Bft)
09.04.2016 05:10 2,3 C 2,2 C 87 % 1006,8 hPa 0,0 mm 1,8 km/h (1 Bft) N-NW 337 0 min 0,4 C 0,0 km/h (0 Bft)
09.04.2016 05:15 2,3 C 2,1 C 91 % 1006,8 hPa 0,0 mm 2,1 km/h (1 Bft) N-NO 22 0 min 1,0 C 0,0 km/h (0 Bft)
09.04.2016 05:20 2,3 C 2,1 C 91 % 1006,8 hPa 0,0 mm 3,0 km/h (1 Bft) NO 45 0 min 1,0 C 3,3 km/h (1 Bft)
09.04.2016 05:25 2,2 C 2,0 C 91 % 1006,8 hPa 0,0 mm 1,8 km/h (1 Bft) N-NW 337 0 min 0,9 C 0,0 km/h (0 Bft)
09.04.2016 05:30 2,2 C 2,0 C 91 % 1006,6 hPa 0,0 mm 2,1 km/h (1 Bft) O-NO 67 0 min 0,9 C 6,0 km/h (2 Bft)
09.04.2016 05:35 2,1 C 1,9 C 91 % 1006,6 hPa 0,7 mm 3,9 km/h (1 Bft) N-NW 337 0 min 0,8 C 3,9 km/h (1 Bft)
09.04.2016 05:40 2,1 C 1,9 C 91 % 1006,6 hPa 0,0 mm 3,6 km/h (1 Bft) O-NO 67 0 min 0,8 C 0,0 km/h (0 Bft)
09.04.2016 05:45 2,0 C 1,9 C 87 % 1006,6 hPa 0,0 mm 2,1 km/h (1 Bft) O-SO 112 0 min 0,1 C 5,1 km/h (1 Bft)
09.04.2016 05:50 2,0 C 1,9 C 87 % 1006,7 hPa 0,0 mm 3,0 km/h (1 Bft) O 90 0 min 0,1 C 8,6 km/h (2 Bft)
09.04.2016 05:55 2,0 C 1,8 C 91 % 1006,7 hPa 0,0 mm 3,6 km/h (1 Bft) N-NO 22 0 min 0,7 C 3,9 km/h (1 Bft)
09.04.2016 06:00 2,0 C 1,8 C 91 % 1006,7 hPa 0,0 mm 3,3 km/h (1 Bft) NO 45 0 min 0,7 C 6,0 km/h (2 Bft)
09.04.2016 06:05 2,0 C 1,8 C 91 % 1006,7 hPa 0,0 mm 4,2 km/h (1 Bft) O-SO 112 0 min 0,7 C 5,4 km/h (1 Bft)
09.04.2016 06:10 1,9 C 1,8 C 88 % 1006,8 hPa 0,0 mm 2,4 km/h (1 Bft) O-SO 112 0 min 0,1 C 0,0 km/h (0 Bft)
09.04.2016 06:15 1,9 C 1,7 C 91 % 1006,8 hPa 0,0 mm 1,2 km/h (1 Bft) O-NO 67 0 min 0,6 C 4,5 km/h (1 Bft)
09.04.2016 06:20 1,9 C 1,7 C 91 % 1006,8 hPa 0,0 mm 1,8 km/h (1 Bft) O-SO 112 0 min 0,6 C 5,4 km/h (1 Bft)
09.04.2016 06:25 1,8 C 1,7 C 87 % 1006,8 hPa 0,0 mm 1,8 km/h (1 Bft) NO 45 0 min -0,1 C 4,5 km/h (1 Bft)
09.04.2016 06:30 1,8 C 1,7 C 87 % 1006,8 hPa 0,0 mm 1,2 km/h (1 Bft) N-NW 337 0 min -0,1 C 0,0 km/h (0 Bft)
09.04.2016 06:35 1,8 C 1,6 C 91 % 1006,8 hPa 0,0 mm 1,8 km/h (1 Bft) O-NO 67 0 min 0,5 C 4,8 km/h (1 Bft)
09.04.2016 06:40 1,8 C 1,6 C 91 % 1006,8 hPa 0,0 mm 2,7 km/h (1 Bft) O-NO 67 0 min 0,5 C 4,2 km/h (1 Bft)
09.04.2016 06:45 1,8 C 1,7 C 88 % 1006,8 hPa 0,7 mm 2,4 km/h (1 Bft) O-NO 67 0 min 0,0 C 0,0 km/h (0 Bft)
09.04.2016 06:50 1,8 C 1,7 C 88 % 1006,6 hPa 0,0 mm 1,8 km/h (1 Bft) O 90 0 min 0,0 C 3,0 km/h (1 Bft)
09.04.2016 06:55 1,8 C 1,7 C 88 % 1006,6 hPa 0,0 mm 0,6 km/h (0 Bft) NO 45 0 min 0,0 C 3,3 km/h (1 Bft)
09.04.2016 06:58 1,8 C 1,7 C 88 % 1006,6 hPa 0,0 mm 1,2 km/h (1 Bft) N-NO 22 0 min 0,0 C 3,3 km/h (1 Bft)
09.04.2016 06:59 1,8 C 1,7 C 88 % 1006,6 hPa 0,0 mm 1,2 km/h (1 Bft) N-NO 22 0 min 0,0 C 3,3 km/h (1 Bft)
09.04.2016 07:00 1,8 C 1,7 C 88 % 1006,6 hPa 0,0 mm 1,2 km/h (1 Bft) N-NO 22 0 min 0,0 C 3,3 km/h (1 Bft)
09.04.2016 07:05 1,8 C 1,7 C 88 % 1006,6 hPa 0,0 mm 1,5 km/h (1 Bft) NO 45 0 min 0,0 C 6,9 km/h (2 Bft)
09.04.2016 07:10 1,8 C 1,8 C 88 % 1006,7 hPa 0,0 mm 1,8 km/h (1 Bft) O 90 0 min 0,0 C 0,0 km/h (0 Bft)
09.04.2016 07:15 1,9 C 1,8 C 88 % 1006,7 hPa 0,0 mm 2,4 km/h (1 Bft) O-NO 67 0 min 0,1 C 6,3 km/h (2 Bft)
09.04.2016 07:20 1,9 C 1,8 C 88 % 1006,7 hPa 0,0 mm 2,4 km/h (1 Bft) O 90 0 min 0,1 C 6,3 km/h (2 Bft)
09.04.2016 07:25 1,9 C 1,8 C 88 % 1006,7 hPa 0,0 mm 3,6 km/h (1 Bft) NO 45 0 min 0,1 C 3,9 km/h (1 Bft)
09.04.2016 07:30 1,9 C 1,8 C 88 % 1006,6 hPa 0,0 mm 3,9 km/h (1 Bft) NO 45 0 min 0,1 C 5,7 km/h (1 Bft)
09.04.2016 07:35 1,9 C 1,7 C 88 % 1006,6 hPa 0,0 mm 5,1 km/h (1 Bft) NO 45 0 min 0,1 C 6,9 km/h (2 Bft)
09.04.2016 07:40 1,9 C 1,6 C 88 % 1006,6 hPa 0,0 mm 6,3 km/h (2 Bft) NO 45 0 min 0,1 C 9,5 km/h (2 Bft)
09.04.2016 07:45 1,8 C 1,6 C 88 % 1006,6 hPa 0,0 mm 6,0 km/h (2 Bft) O-NO 67 0 min 0,0 C 8,6 km/h (2 Bft)
09.04.2016 07:50 1,8 C 1,7 C 88 % 1006,8 hPa 0,0 mm 4,8 km/h (1 Bft) NO 45 0 min 0,0 C 5,4 km/h (1 Bft)
09.04.2016 07:55 1,8 C 1,7 C 88 % 1006,8 hPa 0,0 mm 2,1 km/h (1 Bft) NO 45 0 min 0,0 C 5,4 km/h (1 Bft)
09.04.2016 08:00 1,8 C 1,7 C 88 % 1006,8 hPa 0,0 mm 1,5 km/h (1 Bft) O-SO 112 0 min 0,0 C 0,0 km/h (0 Bft)
09.04.2016 08:05 1,8 C 1,8 C 88 % 1006,8 hPa 0,0 mm 1,2 km/h (1 Bft) O-SO 112 0 min 0,0 C 4,2 km/h (1 Bft)
09.04.2016 08:10 1,8 C 1,8 C 88 % 1006,8 hPa 0,0 mm 1,2 km/h (1 Bft) SO 135 0 min 0,0 C 4,2 km/h (1 Bft)
09.04.2016 08:15 1,8 C 1,8 C 88 % 1006,8 hPa 0,0 mm 1,2 km/h (1 Bft) O-NO 67 0 min 0,0 C 4,5 km/h (1 Bft)
09.04.2016 08:20 1,9 C 1,9 C 88 % 1006,8 hPa 0,0 mm 0,9 km/h (0 Bft) N-NO 22 0 min 0,1 C 0,0 km/h (0 Bft)
09.04.2016 08:25 1,9 C 1,9 C 88 % 1006,8 hPa 0,0 mm 1,5 km/h (1 Bft) O 90 0 min 0,1 C 4,2 km/h (1 Bft)
09.04.2016 08:30 1,9 C 1,9 C 88 % 1006,6 hPa 0,0 mm 0,9 km/h (0 Bft) N-NW 337 0 min 0,1 C 0,0 km/h (0 Bft)
09.04.2016 08:35 1,9 C 1,9 C 88 % 1006,6 hPa 0,0 mm 1,8 km/h (1 Bft) N 360 0 min 0,1 C 0,0 km/h (0 Bft)
09.04.2016 08:40 2,0 C 1,9 C 87 % 1006,6 hPa 0,0 mm 2,7 km/h (1 Bft) NO 45 0 min 0,1 C 4,5 km/h (1 Bft)
09.04.2016 08:45 2,0 C 1,9 C 87 % 1006,6 hPa 0,0 mm 1,8 km/h (1 Bft) NO 45 0 min 0,1 C 0,0 km/h (0 Bft)
09.04.2016 08:50 2,0 C 2,0 C 87 % 1006,8 hPa 0,0 mm 1,8 km/h (1 Bft) O-NO 67 0 min 0,1 C 6,0 km/h (2 Bft)
09.04.2016 08:55 2,2 C 2,1 C 87 % 1006,8 hPa 0,0 mm 2,4 km/h (1 Bft) NO 45 0 min 0,3 C 5,4 km/h (1 Bft)
09.04.2016 09:00 2,2 C 2,0 C 91 % 1006,8 hPa 0,0 mm 3,0 km/h (1 Bft) NO 45 0 min 0,9 C 0,0 km/h (0 Bft)
09.04.2016 09:05 2,2 C 2,1 C 87 % 1006,8 hPa 0,0 mm 3,6 km/h (1 Bft) O-NO 67 0 min 0,3 C 5,4 km/h (1 Bft)
09.04.2016 09:10 2,2 C 2,1 C 87 % 1006,6 hPa 0,0 mm 4,2 km/h (1 Bft) N-NO 22 0 min 0,3 C 5,1 km/h (1 Bft)
09.04.2016 09:15 2,2 C 2,1 C 87 % 1006,6 hPa 0,0 mm 5,1 km/h (1 Bft) NO 45 0 min 0,3 C 3,6 km/h (1 Bft)
09.04.2016 09:20 2,2 C 2,1 C 87 % 1006,6 hPa 0,0 mm 4,8 km/h (1 Bft) O-SO 112 0 min 0,3 C 8,0 km/h (2 Bft)
09.04.2016 09:25 2,2 C 2,0 C 87 % 1006,6 hPa 0,0 mm 6,3 km/h (2 Bft) NO 45 0 min 0,3 C 17,3 km/h (3 Bft)
09.04.2016 09:30 2,2 C 1,7 C 87 % 1006,6 hPa 0,0 mm 8,6 km/h (2 Bft) N-NO 22 0 min 0,3 C 13,1 km/h (3 Bft)
09.04.2016 09:35 2,3 C 1,7 C 88 % 1006,6 hPa 0,0 mm 9,2 km/h (2 Bft) NO 45 0 min 0,5 C 8,9 km/h (2 Bft)
09.04.2016 09:40 2,3 C 1,9 C 88 % 1006,6 hPa 0,0 mm 8,0 km/h (2 Bft) O-NO 67 0 min 0,5 C 14,9 km/h (3 Bft)
09.04.2016 09:45 2,4 C 2,1 C 88 % 1006,6 hPa 0,0 mm 6,9 km/h (2 Bft) N-NO 22 0 min 0,6 C 9,5 km/h (2 Bft)
09.04.2016 09:50 2,4 C 2,3 C 88 % 1006,8 hPa 0,0 mm 6,0 km/h (2 Bft) O-NO 67 0 min 0,6 C 6,9 km/h (2 Bft)
09.04.2016 09:55 2,4 C 2,2 C 88 % 1006,8 hPa 0,0 mm 6,0 km/h (2 Bft) O 90 0 min 0,6 C 22,1 km/h (4 Bft)
09.04.2016 09:58 2,4 C 2,0 C 88 % 1006,8 hPa 0,0 mm 8,0 km/h (2 Bft) NO 45 0 min 0,6 C 16,1 km/h (3 Bft)
09.04.2016 10:00 2,4 C 2,0 C 88 % 1006,8 hPa 0,0 mm 8,0 km/h (2 Bft) NO 45 0 min 0,6 C 16,1 km/h (3 Bft)
09.04.2016 10:05 2,4 C 2,0 C 88 % 1006,8 hPa 0,0 mm 8,3 km/h (2 Bft) NO 45 0 min 0,6 C 11,3 km/h (2 Bft)
09.04.2016 10:10 2,4 C 2,0 C 88 % 1006,9 hPa 0,0 mm 8,3 km/h (2 Bft) N-NO 22 0 min 0,6 C 20,9 km/h (4 Bft)
09.04.2016 10:15 2,4 C 1,9 C 88 % 1006,9 hPa 0,0 mm 9,5 km/h (2 Bft) O-NO 67 0 min 0,6 C 28,0 km/h (4 Bft)
09.04.2016 10:20 2,4 C 1,9 C 88 % 1006,9 hPa 0,0 mm 10,1 km/h (2 Bft) O-NO 67 0 min 0,6 C 11,0 km/h (2 Bft)
09.04.2016 10:25 2,5 C 2,2 C 88 % 1006,9 hPa 0,0 mm 7,2 km/h (2 Bft) O-NO 67 0 min 0,7 C 7,5 km/h (2 Bft)
09.04.2016 10:30 2,5 C 2,4 C 88 % 1006,7 hPa 0,0 mm 6,0 km/h (2 Bft) SO 135 0 min 0,7 C 6,6 km/h (2 Bft)
09.04.2016 10:35 2,5 C 2,4 C 88 % 1006,7 hPa 0,0 mm 6,6 km/h (2 Bft) NO 45 0 min 0,7 C 9,8 km/h (2 Bft)
09.04.2016 10:40 2,6 C 2,4 C 88 % 1006,7 hPa 0,0 mm 6,0 km/h (2 Bft) O-NO 67 0 min 0,8 C 4,8 km/h (1 Bft)
09.04.2016 10:45 2,6 C 2,4 C 88 % 1006,7 hPa 0,0 mm 6,0 km/h (2 Bft) S-SO 157 0 min 0,8 C 8,3 km/h (2 Bft)
09.04.2016 10:50 2,6 C 2,3 C 88 % 1006,9 hPa 0,0 mm 7,2 km/h (2 Bft) O-SO 112 0 min 0,8 C 7,2 km/h (2 Bft)
09.04.2016 10:55 2,6 C 2,3 C 88 % 1006,9 hPa 0,0 mm 8,3 km/h (2 Bft) O-NO 67 0 min 0,8 C 12,5 km/h (3 Bft)
09.04.2016 11:00 2,6 C 2,3 C 88 % 1006,9 hPa 0,0 mm 8,0 km/h (2 Bft) N-NO 22 0 min 0,8 C 3,6 km/h (1 Bft)
09.04.2016 11:05 2,6 C 2,3 C 88 % 1006,9 hPa 0,0 mm 7,7 km/h (2 Bft) N-NW 337 0 min 0,8 C 15,8 km/h (3 Bft)
09.04.2016 11:10 2,6 C 2,2 C 88 % 1006,9 hPa 0,0 mm 8,3 km/h (2 Bft) NO 45 0 min 0,8 C 11,6 km/h (2 Bft)
09.04.2016 11:15 2,6 C 2,2 C 88 % 1006,9 hPa 0,0 mm 9,5 km/h (2 Bft) NO 45 0 min 0,8 C 6,6 km/h (2 Bft)
09.04.2016 11:20 2,6 C 2,1 C 88 % 1006,9 hPa 0,0 mm 11,0 km/h (2 Bft) O-NO 67 0 min 0,8 C 11,6 km/h (2 Bft)
09.04.2016 11:25 2,7 C 2,1 C 88 % 1006,9 hPa 0,0 mm 11,6 km/h (2 Bft) O-NO 67 0 min 0,9 C 15,8 km/h (3 Bft)
09.04.2016 11:30 2,7 C 2,3 C 88 % 1006,8 hPa 0,0 mm 10,4 km/h (2 Bft) O-NO 67 0 min 0,9 C 14,0 km/h (3 Bft)
09.04.2016 11:35 2,8 C 2,5 C 88 % 1006,8 hPa 0,0 mm 10,1 km/h (2 Bft) O-NO 67 0 min 1,0 C 14,9 km/h (3 Bft)
09.04.2016 11:40 2,8 C 2,5 C 88 % 1006,8 hPa 0,0 mm 9,8 km/h (2 Bft) O-NO 67 0 min 1,0 C 11,3 km/h (2 Bft)
09.04.2016 11:45 2,9 C 2,8 C 88 % 1006,8 hPa 0,0 mm 8,9 km/h (2 Bft) O-NO 67 0 min 1,1 C 12,8 km/h (3 Bft)
09.04.2016 11:50 3,0 C 2,8 C 87 % 1006,5 hPa 0,0 mm 8,9 km/h (2 Bft) N-NW 337 0 min 1,1 C 11,6 km/h (2 Bft)
09.04.2016 11:55 3,0 C 2,7 C 87 % 1006,5 hPa 0,0 mm 11,3 km/h (2 Bft) O-NO 67 0 min 1,1 C 22,7 km/h (4 Bft)
09.04.2016 12:00 3,0 C 2,6 C 87 % 1006,5 hPa 0,0 mm 13,7 km/h (3 Bft) O-NO 67 0 min 1,1 C 17,6 km/h (3 Bft)
09.04.2016 12:05 3,1 C 2,8 C 87 % 1006,5 hPa 0,0 mm 14,6 km/h (3 Bft) NO 45 0 min 1,2 C 13,1 km/h (3 Bft)
09.04.2016 12:10 3,1 C 2,6 C 87 % 1006,5 hPa 0,0 mm 13,1 km/h (3 Bft) NO 45 0 min 1,2 C 11,6 km/h (2 Bft)
09.04.2016 12:15 3,3 C 2,9 C 87 % 1006,5 hPa 0,0 mm 11,3 km/h (2 Bft) O-NO 67 0 min 1,3 C 11,3 km/h (2 Bft)
09.04.2016 12:20 3,3 C 3,1 C 87 % 1006,5 hPa 0,0 mm 10,1 km/h (2 Bft) O-NO 67 0 min 1,3 C 11,0 km/h (2 Bft)
09.04.2016 12:25 3,4 C 3,1 C 87 % 1006,5 hPa 0,0 mm 10,4 km/h (2 Bft) NO 45 0 min 1,4 C 11,3 km/h (2 Bft)
09.04.2016 12:30 3,4 C 3,2 C 87 % 1006,6 hPa 0,0 mm 11,0 km/h (2 Bft) NO 45 0 min 1,4 C 14,0 km/h (3 Bft)
09.04.2016 12:35 3,5 C 3,3 C 87 % 1006,6 hPa 0,0 mm 10,1 km/h (2 Bft) N-NO 22 0 min 1,5 C 11,6 km/h (2 Bft)
09.04.2016 12:40 3,5 C 3,3 C 87 % 1006,6 hPa 0,0 mm 10,1 km/h (2 Bft) NO 45 0 min 1,5 C 18,2 km/h (3 Bft)
09.04.2016 12:45 3,6 C 3,6 C 87 % 1006,6 hPa 0,0 mm 8,3 km/h (2 Bft) S-SO 157 0 min 1,6 C 7,7 km/h (2 Bft)
09.04.2016 12:50 3,7 C 3,7 C 87 % 1006,4 hPa 0,0 mm 8,0 km/h (2 Bft) O 90 0 min 1,7 C 10,7 km/h (2 Bft)
09.04.2016 12:55 3,7 C 3,5 C 87 % 1006,4 hPa 0,0 mm 9,5 km/h (2 Bft) NO 45 0 min 1,7 C 14,0 km/h (3 Bft)
09.04.2016 12:58 3,7 C 3,7 C 87 % 1006,4 hPa 0,0 mm 9,5 km/h (2 Bft) N-NO 22 0 min 1,7 C 12,2 km/h (2 Bft)
09.04.2016 13:01 3,7 C 3,7 C 87 % 1006,4 hPa 0,0 mm 9,5 km/h (2 Bft) N-NO 22 0 min 1,7 C 12,2 km/h (2 Bft)
09.04.2016 13:05 3,7 C 3,6 C 87 % 1006,4 hPa 0,7 mm 10,7 km/h (2 Bft) N-NO 22 0 min 1,7 C 9,2 km/h (2 Bft)
09.04.2016 13:10 3,8 C 3,7 C 87 % 1006,6 hPa 0,0 mm 11,3 km/h (2 Bft) O-NO 67 0 min 1,8 C 17,0 km/h (3 Bft)
09.04.2016 13:15 3,9 C 3,9 C 87 % 1006,6 hPa 0,0 mm 9,5 km/h (2 Bft) NO 45 0 min 1,9 C 14,9 km/h (3 Bft)
09.04.2016 13:20 3,9 C 4,0 C 87 % 1006,6 hPa 0,0 mm 8,9 km/h (2 Bft) O-SO 112 0 min 1,9 C 13,1 km/h (3 Bft)
09.04.2016 13:25 4,1 C 3,9 C 86 % 1006,6 hPa 0,0 mm 10,7 km/h (2 Bft) O-SO 112 0 min 2,0 C 25,0 km/h (4 Bft)
09.04.2016 13:30 4,1 C 4,0 C 86 % 1006,5 hPa 0,0 mm 11,3 km/h (2 Bft) NO 45 0 min 2,0 C 14,0 km/h (3 Bft)
09.04.2016 13:35 4,2 C 4,2 C 86 % 1006,5 hPa 0,0 mm 11,3 km/h (2 Bft) O-NO 67 0 min 2,1 C 18,2 km/h (3 Bft)
09.04.2016 13:40 4,3 C 4,5 C 86 % 1006,5 hPa 0,0 mm 9,2 km/h (2 Bft) NO 45 0 min 2,2 C 8,3 km/h (2 Bft)
09.04.2016 13:45 4,4 C 4,8 C 86 % 1006,5 hPa 0,0 mm 7,2 km/h (2 Bft) N-NO 22 0 min 2,3 C 15,2 km/h (3 Bft)
09.04.2016 13:50 4,4 C 4,6 C 86 % 1006,6 hPa 0,0 mm 7,5 km/h (2 Bft) O-NO 67 0 min 2,3 C 11,3 km/h (2 Bft)
09.04.2016 13:55 4,5 C 4,5 C 86 % 1006,6 hPa 0,0 mm 8,6 km/h (2 Bft) N-NW 337 0 min 2,4 C 4,2 km/h (1 Bft)
09.04.2016 14:00 4,5 C 4,4 C 86 % 1006,6 hPa 0,0 mm 9,2 km/h (2 Bft) O-NO 67 0 min 2,4 C 17,0 km/h (3 Bft)
09.04.2016 14:05 4,4 C 4,2 C 86 % 1006,6 hPa 0,0 mm 10,1 km/h (2 Bft) O-NO 67 0 min 2,3 C 15,8 km/h (3 Bft)
09.04.2016 14:10 4,4 C 4,0 C 86 % 1006,5 hPa 0,0 mm 11,0 km/h (2 Bft) NO 45 0 min 2,3 C 14,0 km/h (3 Bft)
09.04.2016 14:15 4,4 C 4,1 C 86 % 1006,5 hPa 0,0 mm 10,1 km/h (2 Bft) O-NO 67 0 min 2,3 C 9,5 km/h (2 Bft)
09.04.2016 14:20 4,4 C 4,1 C 86 % 1006,5 hPa 0,0 mm 9,8 km/h (2 Bft) NO 45 0 min 2,3 C 11,3 km/h (2 Bft)
09.04.2016 14:25 4,4 C 4,3 C 86 % 1006,5 hPa 0,0 mm 8,3 km/h (2 Bft) O 90 0 min 2,3 C 12,8 km/h (3 Bft)
09.04.2016 14:30 4,5 C 4,3 C 86 % 1006,6 hPa 0,0 mm 9,8 km/h (2 Bft) O-NO 67 0 min 2,4 C 16,4 km/h (3 Bft)
09.04.2016 14:35 4,5 C 4,3 C 86 % 1006,6 hPa 0,0 mm 11,9 km/h (2 Bft) NO 45 0 min 2,4 C 10,1 km/h (2 Bft)
09.04.2016 14:40 4,6 C 4,5 C 86 % 1006,6 hPa 0,0 mm 10,4 km/h (2 Bft) NO 45 0 min 2,5 C 9,8 km/h (2 Bft)
09.04.2016 14:45 4,7 C 4,5 C 86 % 1006,6 hPa 0,0 mm 9,2 km/h (2 Bft) O-NO 67 0 min 2,6 C 16,4 km/h (3 Bft)
09.04.2016 14:50 4,6 C 4,4 C 86 % 1006,4 hPa 0,0 mm 10,1 km/h (2 Bft) O-NO 67 0 min 2,5 C 16,4 km/h (3 Bft)
09.04.2016 14:55 4,7 C 4,6 C 86 % 1006,4 hPa 0,0 mm 10,4 km/h (2 Bft) N-NO 22 0 min 2,6 C 15,2 km/h (3 Bft)
09.04.2016 15:00 4,7 C 4,8 C 86 % 1006,4 hPa 0,0 mm 9,5 km/h (2 Bft) N-NO 22 0 min 2,6 C 17,3 km/h (3 Bft)
09.04.2016 15:05 4,8 C 4,8 C 86 % 1006,4 hPa 0,7 mm 10,1 km/h (2 Bft) NO 45 0 min 2,7 C 12,2 km/h (2 Bft)
09.04.2016 15:10 4,8 C 4,7 C 86 % 1006,2 hPa 0,0 mm 11,6 km/h (2 Bft) O-SO 112 0 min 2,7 C 19,1 km/h (3 Bft)
09.04.2016 15:15 4,8 C 4,5 C 86 % 1006,2 hPa 0,0 mm 11,9 km/h (2 Bft) N-NO 22 0 min 2,7 C 13,4 km/h (3 Bft)
09.04.2016 15:20 4,8 C 4,4 C 86 % 1006,2 hPa 0,0 mm 12,5 km/h (3 Bft) NO 45 0 min 2,7 C 15,8 km/h (3 Bft)
09.04.2016 15:25 4,8 C 4,9 C 86 % 1006,2 hPa 0,0 mm 11,3 km/h (2 Bft) NO 45 0 min 2,7 C 8,3 km/h (2 Bft)
09.04.2016 15:30 4,8 C 5,3 C 86 % 1006,4 hPa 0,0 mm 8,9 km/h (2 Bft) W-SW 247 0 min 2,7 C 10,4 km/h (2 Bft)
09.04.2016 15:35 4,8 C 5,7 C 86 % 1006,4 hPa 0,0 mm 7,7 km/h (2 Bft) O-NO 67 0 min 2,7 C 6,0 km/h (2 Bft)
09.04.2016 15:40 4,8 C 5,7 C 86 % 1006,4 hPa 0,0 mm 7,2 km/h (2 Bft) NO 45 0 min 2,7 C 6,0 km/h (2 Bft)
09.04.2016 15:45 4,8 C 5,3 C 86 % 1006,4 hPa 0,0 mm 8,0 km/h (2 Bft) O-NO 67 0 min 2,7 C 13,7 km/h (3 Bft)
09.04.2016 15:50 4,8 C 4,9 C 86 % 1006,6 hPa 0,0 mm 8,6 km/h (2 Bft) SO 135 0 min 2,7 C 8,3 km/h (2 Bft)
09.04.2016 15:55 4,8 C 5,0 C 86 % 1006,6 hPa 0,0 mm 8,3 km/h (2 Bft) NO 45 0 min 2,7 C 6,6 km/h (2 Bft)
09.04.2016 16:00 4,8 C 5,3 C 86 % 1006,6 hPa 0,0 mm 7,7 km/h (2 Bft) O-NO 67 0 min 2,7 C 11,3 km/h (2 Bft)
09.04.2016 16:02 0,0 C 5,3 C 84 % 1006,6 hPa 0,0 mm 7,7 km/h (2 Bft) O-NO 67 0 min -2,4 C 11,3 km/h (2 Bft)
09.04.2016 16:05 0,0 C 5,1 C 84 % 1006,6 hPa 0,0 mm 9,2 km/h (2 Bft) O-NO 67 0 min -2,4 C 7,2 km/h (2 Bft)
09.04.2016 16:10 0,0 C 5,2 C 84 % 1006,4 hPa 0,0 mm 9,5 km/h (2 Bft) O 90 0 min -2,4 C 7,5 km/h (2 Bft)
09.04.2016 16:15 0,0 C 5,4 C 83 % 1006,4 hPa 0,0 mm 6,6 km/h (2 Bft) O-SO 112 0 min -2,5 C 7,2 km/h (2 Bft)
09.04.2016 16:20 0,0 C 5,3 C 83 % 1006,4 hPa 0,0 mm 5,1 km/h (1 Bft) O-NO 67 0 min -2,5 C 5,1 km/h (1 Bft)
09.04.2016 16:25 0,0 C 5,2 C 83 % 1006,4 hPa 0,0 mm 6,9 km/h (2 Bft) O-NO 67 0 min -2,5 C 19,7 km/h (3 Bft)
09.04.2016 16:30 0,0 C 4,9 C 83 % 1006,6 hPa 0,0 mm 9,8 km/h (2 Bft) O-NO 67 0 min -2,5 C 8,9 km/h (2 Bft)
09.04.2016 16:35 0,0 C 5,2 C 83 % 1006,6 hPa 0,0 mm 8,6 km/h (2 Bft) N-NO 22 0 min -2,5 C 14,0 km/h (3 Bft)
09.04.2016 16:40 0,0 C 5,2 C 83 % 1006,6 hPa 0,0 mm 8,3 km/h (2 Bft) O-NO 67 0 min -2,5 C 9,8 km/h (2 Bft)
09.04.2016 16:45 0,0 C 5,2 C 83 % 1006,6 hPa 0,0 mm 8,9 km/h (2 Bft) N-NO 22 0 min -2,5 C 10,7 km/h (2 Bft)
09.04.2016 16:50 0,0 C 5,3 C 83 % 1006,7 hPa 0,0 mm 7,5 km/h (2 Bft) NO 45 0 min -2,5 C 7,2 km/h (2 Bft)
09.04.2016 16:55 0,0 C 5,6 C 83 % 1006,7 hPa 0,0 mm 6,6 km/h (2 Bft) O-NO 67 0 min -2,5 C 8,6 km/h (2 Bft)
09.04.2016 17:00 0,0 C 5,7 C 83 % 1006,7 hPa 0,0 mm 6,9 km/h (2 Bft) O-NO 67 0 min -2,5 C 10,1 km/h (2 Bft)
09.04.2016 17:05 0,0 C 5,7 C 82 % 1006,7 hPa 0,0 mm 7,7 km/h (2 Bft) NO 45 0 min -2,7 C 11,3 km/h (2 Bft)
09.04.2016 17:10 0,0 C 5,6 C 83 % 1006,8 hPa 0,7 mm 7,7 km/h (2 Bft) N-NW 337 0 min -2,5 C 14,3 km/h (3 Bft)
09.04.2016 17:15 0,0 C 5,4 C 83 % 1006,8 hPa 0,0 mm 8,9 km/h (2 Bft) SO 135 0 min -2,5 C 15,2 km/h (3 Bft)
09.04.2016 17:20 5,4 C 5,3 C 84 % 1006,8 hPa 0,0 mm 9,5 km/h (2 Bft) W-NW 292 0 min 2,9 C 6,3 km/h (2 Bft)
09.04.2016 17:25 5,5 C 5,5 C 84 % 1006,8 hPa 0,0 mm 10,1 km/h (2 Bft) N-NO 22 0 min 3,0 C 8,3 km/h (2 Bft)
09.04.2016 17:30 5,5 C 5,7 C 84 % 1007,1 hPa 0,0 mm 8,3 km/h (2 Bft) O-NO 67 0 min 3,0 C 9,5 km/h (2 Bft)
09.04.2016 17:35 5,4 C 5,3 C 84 % 1007,1 hPa 0,0 mm 10,4 km/h (2 Bft) O-NO 67 0 min 2,9 C 12,5 km/h (3 Bft)
09.04.2016 17:40 5,2 C 5,0 C 84 % 1007,1 hPa 0,0 mm 11,6 km/h (2 Bft) O-NO 67 0 min 2,7 C 8,9 km/h (2 Bft)
09.04.2016 17:45 5,2 C 5,1 C 84 % 1007,1 hPa 0,0 mm 8,9 km/h (2 Bft) O-NO 67 0 min 2,7 C 5,1 km/h (1 Bft)
09.04.2016 17:50 5,2 C 5,1 C 84 % 1006,9 hPa 0,0 mm 8,0 km/h (2 Bft) O-NO 67 0 min 2,7 C 8,6 km/h (2 Bft)
09.04.2016 17:55 5,1 C 4,9 C 84 % 1006,9 hPa 0,0 mm 9,2 km/h (2 Bft) NO 45 0 min 2,6 C 11,3 km/h (2 Bft)
09.04.2016 18:00 5,1 C 4,9 C 84 % 1006,9 hPa 0,0 mm 9,2 km/h (2 Bft) NO 45 0 min 2,6 C 8,9 km/h (2 Bft)
09.04.2016 18:05 5,1 C 5,0 C 84 % 1006,9 hPa 0,0 mm 8,0 km/h (2 Bft) N-NO 22 0 min 2,6 C 8,9 km/h (2 Bft)
09.04.2016 18:10 5,1 C 5,2 C 84 % 1007,0 hPa 0,0 mm 6,0 km/h (2 Bft) SO 135 0 min 2,6 C 4,8 km/h (1 Bft)
09.04.2016 18:15 5,1 C 5,3 C 84 % 1007,0 hPa 0,0 mm 4,8 km/h (1 Bft) NO 45 0 min 2,6 C 3,9 km/h (1 Bft)
09.04.2016 18:20 5,1 C 5,4 C 84 % 1007,0 hPa 0,0 mm 5,4 km/h (1 Bft) NO 45 0 min 2,6 C 8,9 km/h (2 Bft)
09.04.2016 18:25 5,2 C 5,4 C 84 % 1007,0 hPa 0,0 mm 5,4 km/h (1 Bft) O-NO 67 0 min 2,7 C 8,0 km/h (2 Bft)
09.04.2016 18:30 5,2 C 5,3 C 84 % 1007,2 hPa 0,0 mm 7,5 km/h (2 Bft) O-NO 67 0 min 2,7 C 8,9 km/h (2 Bft)
09.04.2016 18:35 5,2 C 5,4 C 84 % 1007,2 hPa 0,0 mm 4,8 km/h (1 Bft) O-NO 67 0 min 2,7 C 0,0 km/h (0 Bft)
09.04.2016 18:40 5,2 C 5,3 C 84 % 1007,2 hPa 0,0 mm 2,4 km/h (1 Bft) O 90 0 min 2,7 C 5,7 km/h (1 Bft)
09.04.2016 18:45 5,1 C 5,1 C 84 % 1007,2 hPa 0,0 mm 1,8 km/h (1 Bft) NO 45 0 min 2,6 C 5,7 km/h (1 Bft)
09.04.2016 18:50 5,0 C 5,0 C 84 % 1007,4 hPa 0,0 mm 3,0 km/h (1 Bft) N-NO 22 0 min 2,5 C 3,0 km/h (1 Bft)
09.04.2016 18:55 5,0 C 4,9 C 84 % 1007,4 hPa 0,0 mm 4,8 km/h (1 Bft) O-NO 67 0 min 2,5 C 9,5 km/h (2 Bft)
09.04.2016 19:00 4,9 C 4,6 C 85 % 1007,4 hPa 0,0 mm 6,6 km/h (2 Bft) O-NO 67 0 min 2,6 C 14,9 km/h (3 Bft)
09.04.2016 19:03 4,9 C 4,6 C 85 % 1007,4 hPa 0,0 mm 6,6 km/h (2 Bft) O-NO 67 0 min 2,6 C 14,9 km/h (3 Bft)
09.04.2016 19:05 4,8 C 4,6 C 84 % 1007,4 hPa 0,0 mm 6,0 km/h (2 Bft) O-NO 67 0 min 2,3 C 3,3 km/h (1 Bft)
09.04.2016 19:10 4,8 C 4,6 C 85 % 1007,6 hPa 0,0 mm 4,5 km/h (1 Bft) NO 45 0 min 2,5 C 3,6 km/h (1 Bft)
09.04.2016 19:15 4,7 C 4,5 C 85 % 1007,6 hPa 0,0 mm 3,0 km/h (1 Bft) O 90 0 min 2,4 C 6,9 km/h (2 Bft)
09.04.2016 19:20 4,6 C 4,4 C 86 % 1007,6 hPa 0,0 mm 1,8 km/h (1 Bft) N-NO 22 0 min 2,5 C 3,0 km/h (1 Bft)
09.04.2016 19:25 4,6 C 4,4 C 86 % 1007,6 hPa 0,0 mm 1,2 km/h (1 Bft) S-SO 157 0 min 2,5 C 0,0 km/h (0 Bft)
09.04.2016 19:30 4,6 C 4,4 C 86 % 1007,6 hPa 0,0 mm 0,3 km/h (0 Bft) SO 135 0 min 2,5 C 0,0 km/h (0 Bft)
09.04.2016 19:35 4,5 C 4,3 C 86 % 1007,6 hPa 0,0 mm 0,9 km/h (0 Bft) NO 45 0 min 2,4 C 3,0 km/h (1 Bft)
09.04.2016 19:40 4,5 C 4,3 C 86 % 1007,6 hPa 0,0 mm 1,2 km/h (1 Bft) NO 45 0 min 2,4 C 6,0 km/h (2 Bft)
09.04.2016 19:45 4,5 C 4,3 C 86 % 1007,6 hPa 0,0 mm 1,8 km/h (1 Bft) O-NO 67 0 min 2,4 C 0,0 km/h (0 Bft)
09.04.2016 19:50 4,5 C 4,3 C 86 % 1007,8 hPa 0,0 mm 1,5 km/h (1 Bft) NO 45 0 min 2,4 C 0,0 km/h (0 Bft)
09.04.2016 19:55 4,4 C 4,2 C 86 % 1007,8 hPa 0,0 mm 0,0 km/h (0 Bft) SO 135 0 min 2,3 C 0,0 km/h (0 Bft)
09.04.2016 20:00 4,4 C 4,2 C 86 % 1007,8 hPa 0,0 mm 0,0 km/h (0 Bft) O 90 0 min 2,3 C 0,0 km/h (0 Bft)
09.04.2016 20:05 4,3 C 4,1 C 86 % 1007,8 hPa 0,0 mm 0,0 km/h (0 Bft) S-SO 157 0 min 2,2 C 0,0 km/h (0 Bft)
09.04.2016 20:10 4,2 C 4,0 C 86 % 1008,1 hPa 0,0 mm 0,0 km/h (0 Bft) N-NO 22 0 min 2,1 C 0,0 km/h (0 Bft)
09.04.2016 20:15 4,1 C 3,9 C 86 % 1008,1 hPa 0,0 mm 0,0 km/h (0 Bft) SO 135 0 min 2,0 C 3,0 km/h (1 Bft)
09.04.2016 20:20 4,0 C 3,8 C 86 % 1008,1 hPa 0,0 mm 0,3 km/h (0 Bft) O-SO 112 0 min 1,9 C 0,0 km/h (0 Bft)
09.04.2016 20:25 4,0 C 3,8 C 86 % 1008,1 hPa 0,0 mm 0,3 km/h (0 Bft) S-SO 157 0 min 1,9 C 0,0 km/h (0 Bft)
09.04.2016 20:30 4,0 C 3,8 C 86 % 1008,2 hPa 0,0 mm 0,0 km/h (0 Bft) O 90 0 min 1,9 C 0,0 km/h (0 Bft)
09.04.2016 20:35 4,0 C 3,7 C 87 % 1008,2 hPa 0,0 mm 0,0 km/h (0 Bft) S-SO 157 0 min 2,0 C 0,0 km/h (0 Bft)
09.04.2016 20:40 3,9 C 3,7 C 87 % 1008,2 hPa 0,0 mm 0,0 km/h (0 Bft) S 180 0 min 1,9 C 0,0 km/h (0 Bft)
09.04.2016 20:45 3,9 C 3,7 C 87 % 1008,2 hPa 0,0 mm 0,3 km/h (0 Bft) S 180 0 min 1,9 C 3,0 km/h (1 Bft)
09.04.2016 20:50 3,9 C 3,7 C 88 % 1008,5 hPa 0,0 mm 0,6 km/h (0 Bft) S-SO 157 0 min 2,1 C 3,0 km/h (1 Bft)
09.04.2016 20:55 3,9 C 3,7 C 88 % 1008,5 hPa 0,0 mm 1,8 km/h (1 Bft) S 180 0 min 2,1 C 3,6 km/h (1 Bft)
09.04.2016 21:00 3,9 C 3,7 C 88 % 1008,5 hPa 0,0 mm 2,4 km/h (1 Bft) S-SO 157 0 min 2,1 C 0,0 km/h (0 Bft)
09.04.2016 21:05 3,8 C 3,6 C 88 % 1008,5 hPa 0,0 mm 1,8 km/h (1 Bft) S-SO 157 0 min 2,0 C 0,0 km/h (0 Bft)
09.04.2016 21:10 3,8 C 3,6 C 88 % 1008,6 hPa 0,0 mm 0,9 km/h (0 Bft) S-SO 157 0 min 2,0 C 0,0 km/h (0 Bft)
09.04.2016 21:15 3,8 C 3,6 C 88 % 1008,6 hPa 0,0 mm 1,2 km/h (1 Bft) S 180 0 min 2,0 C 3,0 km/h (1 Bft)
09.04.2016 21:20 3,8 C 3,6 C 88 % 1008,6 hPa 0,0 mm 1,5 km/h (1 Bft) S-SO 157 0 min 2,0 C 0,0 km/h (0 Bft)
09.04.2016 21:25 3,8 C 3,6 C 88 % 1008,6 hPa 0,0 mm 0,6 km/h (0 Bft) S-SO 157 0 min 2,0 C 0,0 km/h (0 Bft)
09.04.2016 21:30 3,7 C 3,5 C 88 % 1008,7 hPa 0,0 mm 0,0 km/h (0 Bft) S-SO 157 0 min 1,9 C 0,0 km/h (0 Bft)
09.04.2016 21:35 3,7 C 3,5 C 89 % 1008,7 hPa 0,0 mm 0,9 km/h (0 Bft) S 180 0 min 2,1 C 5,1 km/h (1 Bft)
09.04.2016 21:40 3,8 C 3,6 C 89 % 1008,7 hPa 0,0 mm 2,1 km/h (1 Bft) S-SO 157 0 min 2,2 C 0,0 km/h (0 Bft)
09.04.2016 21:45 3,8 C 3,6 C 89 % 1008,7 hPa 0,0 mm 3,6 km/h (1 Bft) S-SO 157 0 min 2,2 C 4,8 km/h (1 Bft)
09.04.2016 21:50 3,7 C 3,5 C 89 % 1008,9 hPa 0,0 mm 3,0 km/h (1 Bft) S 180 0 min 2,1 C 4,2 km/h (1 Bft)
09.04.2016 21:55 3,7 C 3,5 C 89 % 1008,9 hPa 0,0 mm 3,3 km/h (1 Bft) S-SO 157 0 min 2,1 C 3,0 km/h (1 Bft)
09.04.2016 22:00 3,7 C 3,5 C 89 % 1008,9 hPa 0,0 mm 2,1 km/h (1 Bft) S 180 0 min 2,1 C 0,0 km/h (0 Bft)
09.04.2016 22:03 0,0 C 3,5 C 89 % 1008,9 hPa 0,0 mm 0,0 km/h (0 Bft) SO 135 0 min -1,6 C 0,0 km/h (0 Bft)
09.04.2016 22:04 0,0 C 3,5 C 89 % 1008,9 hPa 0,0 mm 0,0 km/h (0 Bft) SO 135 0 min -1,6 C 0,0 km/h (0 Bft)
09.04.2016 22:05 0,0 C 3,5 C 89 % 1008,9 hPa 0,0 mm 0,0 km/h (0 Bft) SO 135 0 min -1,6 C 0,0 km/h (0 Bft)
09.04.2016 22:10 0,0 C 3,5 C 89 % 1008,9 hPa 0,0 mm 0,0 km/h (0 Bft) SO 135 0 min -1,6 C 0,0 km/h (0 Bft)
09.04.2016 22:15 0,0 C 3,5 C 89 % 1008,9 hPa 0,0 mm 0,0 km/h (0 Bft) SO 135 0 min -1,6 C 0,0 km/h (0 Bft)
09.04.2016 22:20 0,0 C 3,4 C 89 % 1008,9 hPa 0,0 mm 0,0 km/h (0 Bft) SO 135 0 min -1,6 C 0,0 km/h (0 Bft)
09.04.2016 22:25 0,0 C 3,4 C 89 % 1008,9 hPa 0,0 mm 0,0 km/h (0 Bft) O-SO 112 0 min -1,6 C 0,0 km/h (0 Bft)
09.04.2016 22:30 0,0 C 3,4 C 89 % 1008,9 hPa 0,0 mm 0,0 km/h (0 Bft) S 180 0 min -1,6 C 0,0 km/h (0 Bft)
09.04.2016 22:35 0,0 C 3,4 C 89 % 1008,9 hPa 0,0 mm 0,3 km/h (0 Bft) S-SO 157 0 min -1,6 C 0,0 km/h (0 Bft)
09.04.2016 22:40 0,0 C 3,4 C 89 % 1008,9 hPa 0,0 mm 0,3 km/h (0 Bft) S-SO 157 0 min -1,6 C 0,0 km/h (0 Bft)
09.04.2016 22:45 0,0 C 3,4 C 89 % 1008,9 hPa 0,0 mm 0,0 km/h (0 Bft) O-SO 112 0 min -1,6 C 0,0 km/h (0 Bft)
09.04.2016 22:50 0,0 C 3,3 C 90 % 1008,9 hPa 0,0 mm 0,0 km/h (0 Bft) S 180 0 min -1,4 C 0,0 km/h (0 Bft)
09.04.2016 22:55 0,0 C 3,3 C 90 % 1008,9 hPa 0,0 mm 0,0 km/h (0 Bft) SO 135 0 min -1,4 C 0,0 km/h (0 Bft)
09.04.2016 23:00 0,0 C 3,3 C 90 % 1008,9 hPa 0,0 mm 0,0 km/h (0 Bft) O-NO 67 0 min -1,4 C 0,0 km/h (0 Bft)
09.04.2016 23:05 0,0 C 3,3 C 90 % 1008,9 hPa 0,0 mm 0,0 km/h (0 Bft) S-SO 157 0 min -1,4 C 0,0 km/h (0 Bft)
09.04.2016 23:10 0,0 C 3,3 C 90 % 1008,9 hPa 0,0 mm 0,0 km/h (0 Bft) S 180 0 min -1,4 C 0,0 km/h (0 Bft)
09.04.2016 23:15 0,0 C 3,3 C 90 % 1008,9 hPa 0,0 mm 0,0 km/h (0 Bft) SW 225 0 min -1,4 C 0,0 km/h (0 Bft)
09.04.2016 23:20 0,0 C 3,3 C 90 % 1008,9 hPa 0,0 mm 0,0 km/h (0 Bft) S-SO 157 0 min -1,4 C 0,0 km/h (0 Bft)
09.04.2016 23:25 0,0 C 3,2 C 90 % 1008,9 hPa 0,0 mm 0,0 km/h (0 Bft) O-SO 112 0 min -1,4 C 0,0 km/h (0 Bft)
09.04.2016 23:30 0,0 C 3,2 C 90 % 1008,9 hPa 0,0 mm 0,0 km/h (0 Bft) S-SO 157 0 min -1,4 C 0,0 km/h (0 Bft)
09.04.2016 23:35 0,0 C 3,2 C 90 % 1008,9 hPa 0,0 mm 0,0 km/h (0 Bft) SO 135 0 min -1,4 C 0,0 km/h (0 Bft)
09.04.2016 23:40 0,0 C 3,2 C 90 % 1008,9 hPa 0,0 mm 0,0 km/h (0 Bft) S-SO 157 0 min -1,4 C 0,0 km/h (0 Bft)
09.04.2016 23:45 0,0 C 3,2 C 90 % 1008,9 hPa 0,0 mm 0,0 km/h (0 Bft) S-SO 157 0 min -1,4 C 0,0 km/h (0 Bft)
09.04.2016 23:50 0,0 C 3,2 C 90 % 1008,9 hPa 0,0 mm 0,0 km/h (0 Bft) W-SW 247 0 min -1,4 C 0,0 km/h (0 Bft)
09.04.2016 23:55 0,0 C 3,2 C 90 % 1008,9 hPa 0,0 mm 0,0 km/h (0 Bft) SO 135 0 min -1,4 C 0,0 km/h (0 Bft)
_ Min-Zeit 23:55 07:45 17:05 15:25 - 23:55 - - - 17:05 23:55
Minimum _ 0,0 C 1,6 C 82 % 1006,2 hPa - 0,0 km/h (0 Bft) - - - -2,7 C 0,0 km/h (0 Bft)
_ Max-Zeit 17:30 17:30 09:00 23:55 17:10 12:05 - - 23:55 17:30 10:15
Maximum _ 5,5 C 5,7 C 91 % 1008,9 hPa 0,7 mm 14,6 km/h
NO (3 Bft)
- - 0 min 3,0 C 28,0 km/h
O-NO (4 Bft)
Durchschnitt _ 2,7 C 3,1 C 87 % 1007,3 hPa #4,8 mm 4,2 km/h (1 Bft) O-NO - #0 min. 0,8 C 5,7 km/h (1 Bft)